USA 153

Last updated on Jan. 22, 2021, 6:26 a.m. UTC

1 26575U 00065A   21021.50863823 -.00000320  00000-0  00000-0 0  9993
2 26575   8.2495  48.6922 0001986 277.1508 112.6404  1.00266391 13156
UTC
Height (km)
Latitude
Longitude
Inclination
Orbital Period
UTC large
Height (km)
Speed (km/s)
/
Latitude / Longitude
Inclination (degrees)
Orbital Period (minutes)
Azimuth
Elevation
Range (km)
Doppler Factor
iOS Compass Heading
iOS Angle

Next 30 passes for location: Hong Kong

Rise time Rise Azimuth (degrees) Set time Set Azimuth (degrees) Duration Max altitude (degrees)

No matching passes for this satellites